FW8774 Weather Reports


time (UTC)temp
C
wind
direction
speed
KPH
gust
KPH
rain 1hr
cm
rain 24hr
cm
rain mn
cm
humidity
%
barometer
mb
20260504150815 17 202 17.7 27.4 0.00 0.00 0.00 66 1007.9
20260504150539 17 173 17.7 27.4 0.00 0.00 0.00 67 1007.8
20260504141209 16 222 14.5 27.4 0.00 0.00 0.00 67 1007.9
20260504140703 15 205 16.1 27.4 0.00 0.00 0.00 66 1008.0
20260504140157 15 220 16.1 27.4 0.00 0.00 0.00 67 1008.0
20260504130627 13 224 16.1 24.1 0.00 0.00 0.00 69 1008.4
20260504130127 13 205 14.5 24.1 0.00 0.00 0.00 69 1008.5
20260504120116 12 191 16.1 27.4 0.00 0.00 0.00 71 1008.6
20260504110612 10 0 11.3 24.1 0.00 0.00 0.00 74 1008.6
20260504110112 10 201 12.9 24.1 0.00 0.00 0.00 74 1008.4
20260504100610 10 192 16.1 27.4 0.00 0.00 0.00 74 1008.5
20260504100108 10 184 14.5 24.1 0.00 0.00 0.00 74 1008.6
20260504081548 10 196 16.1 30.6 0.00 0.00 0.00 71 1009.4
20260504081042 10 193 14.5 30.6 0.00 0.00 0.00 71 1009.4
20260504080536 10 225 14.5 24.1 0.00 0.00 0.00 71 1009.4
20260504070150 11 0 19.3 38.6 0.00 0.00 0.00 67 1010.2
20260504050706 12 0 16.1 30.6 0.00 0.00 0.00 64 1011.5
20260504050204 12 0 17.7 30.6 0.00 0.00 0.00 64 1011.4
20260504045704 12 0 17.7 32.2 0.00 0.00 0.00 64 1011.5
20260504045204 12 0 19.3 32.2 0.00 0.00 0.00 64 1011.6
20260504044704 12 0 19.3 32.2 0.00 0.00 0.00 64 1011.6
20260504044204 12 0 19.3 32.2 0.00 0.00 0.00 64 1011.6
20260504043934 12 0 17.7 29.0 0.00 0.00 0.00 64 1011.5
20260504043204 12 0 16.1 32.2 0.00 0.00 0.00 64 1011.5
20260504042704 12 0 17.7 32.2 0.00 0.00 0.00 64 1011.6
20260504042204 12 0 19.3 32.2 0.00 0.00 0.00 64 1011.6
20260504041704 12 0 19.3 32.2 0.00 0.00 0.00 64 1011.6
20260504041203 12 0 19.3 30.6 0.00 0.00 0.00 64 1011.7
20260504040704 12 0 20.9 30.6 0.00 0.00 0.00 64 1011.7
20260504040435 12 0 20.9 33.8 0.00 0.00 0.00 63 1011.8
20260504035703 12 0 20.9 33.8 0.00 0.00 0.00 63 1011.8
20260504035157 12 0 19.3 35.4 0.00 0.00 0.00 64 1011.9
20260504034656 12 0 19.3 35.4 0.00 0.00 0.00 63 1011.9
20260504034426 12 0 20.9 35.4 0.00 0.00 0.00 63 1011.9
20260504033656 12 0 19.3 37.0 0.00 0.00 0.00 63 1011.9
20260504033156 12 0 19.3 37.0 0.00 0.00 0.00 63 1011.9
20260504032655 12 0 19.3 35.4 0.00 0.00 0.00 63 1012.0
20260504032427 12 0 17.7 35.4 0.00 0.00 0.00 64 1012.1
20260504031927 12 0 17.7 35.4 0.00 0.00 0.00 63 1012.1
20260504031802 12 0 19.3 35.4 0.00 0.00 0.00 63 1012.1
20260504030656 12 0 20.9 38.6 0.00 0.00 0.00 63 1012.1
20260504030153 12 0 22.5 37.0 0.00 0.00 0.00 63 1012.2
20260504025925 12 0 22.5 37.0 0.00 0.00 0.00 63 1012.3
20260504025152 12 0 20.9 33.8 0.00 0.00 0.00 63 1012.4
20260504024923 11 0 20.9 33.8 0.00 0.00 0.00 64 1012.4
20260504024152 11 0 20.9 33.8 0.00 0.00 0.00 64 1012.5
20260504023653 11 0 19.3 37.0 0.00 0.00 0.00 65 1012.5
20260504023153 11 0 19.3 37.0 0.00 0.00 0.00 65 1012.5
20260504022657 11 0 19.3 37.0 0.00 0.00 0.00 65 1012.6
20260504022653 11 0 19.3 37.0 0.00 0.00 0.00 65 1012.6
20260504021650 11 0 19.3 35.4 0.00 0.00 0.00 66 1012.5
20260504021150 11 0 20.9 35.4 0.00 0.00 0.00 66 1012.6
20260504020655 11 0 17.7 35.4 0.00 0.00 0.00 68 1012.7
20260504020651 11 0 19.3 35.4 0.00 0.00 0.00 67 1012.7
20260504015650 11 181 14.5 30.6 0.00 0.00 0.00 69 1012.6
20260504015150 11 179 12.9 22.5 0.00 0.00 0.00 70 1012.6
20260504014921 10 192 12.9 29.0 0.00 0.00 0.00 71 1012.5
20260504014148 10 163 12.9 29.0 0.00 0.00 0.00 72 1012.6
20260504013649 10 144 16.1 30.6 0.00 0.00 0.00 71 1012.5
20260504013419 10 169 16.1 30.6 0.00 0.00 0.00 71 1012.6
20260504012649 10 157 14.5 22.5 0.00 0.00 0.00 71 1012.6
20260504012149 10 167 12.9 22.5 0.00 0.00 0.00 71 1012.7
20260504011640 10 131 12.9 20.9 0.00 0.00 0.00 71 1012.8
20260504011134 10 188 12.9 24.1 0.00 0.00 0.00 71 1012.8
20260504010635 10 189 12.9 24.1 0.00 0.00 0.00 71 1012.7
20260504010134 10 167 12.9 22.5 0.00 0.00 0.00 71 1012.8
20260504005634 10 181 12.9 24.1 0.00 0.00 0.00 71 1012.8
20260504005132 10 169 11.3 24.1 0.00 0.00 0.00 71 1013.0
20260504004633 10 152 11.3 19.3 0.00 0.00 0.00 71 1013.0
20260504004132 10 160 11.3 20.9 0.00 0.00 0.00 71 1012.8
20260504003633 10 164 11.3 20.9 0.00 0.00 0.00 71 1013.0
20260504003132 10 173 11.3 19.3 0.00 0.00 0.00 71 1013.0
20260504002632 10 150 11.3 17.7 0.00 0.00 0.00 70 1012.9
20260504002403 10 163 11.3 17.7 0.00 0.00 0.00 71 1012.9
20260504001902 10 172 11.3 19.3 0.00 0.00 0.00 71 1013.0
20260504001133 10 165 11.3 19.3 0.00 0.00 0.00 72 1013.0
20260504000638 10 149 9.7 16.1 0.00 0.00 0.00 72 1012.9
20260504000632 10 161 9.7 16.1 0.00 0.00 0.00 72 1012.9
20260503235635 10 147 9.7 17.7 0.00 0.00 0.00 72 1012.9
20260503235134 10 171 9.7 17.7 0.00 0.00 0.00 71 1012.8
20260503234859 10 148 9.7 14.5 0.00 0.00 0.00 71 1012.9
20260503234122 11 173 8.0 14.5 0.00 0.00 0.00 71 1013.1
20260503233616 11 207 9.7 14.5 0.00 0.00 0.00 71 1013.1
20260503233110 11 199 9.7 16.1 0.00 0.00 0.00 71 1013.2
20260503232604 11 186 8.0 20.9 0.00 0.00 0.00 70 1013.2
20260503232058 11 179 8.0 20.9 0.00 0.00 0.00 70 1013.2
20260503231552 11 0 11.3 22.5 0.00 0.00 0.00 70 1013.2
20260503231317 11 0 12.9 22.5 0.00 0.00 0.00 69 1013.3
20260503230540 11 0 12.9 22.5 0.00 0.00 0.00 70 1013.3
20260503230034 11 0 12.9 22.5 0.00 0.00 0.00 69 1013.3
20260503225528 11 0 11.3 19.3 0.00 0.00 0.00 70 1013.4
20260503225022 11 0 11.3 30.6 0.00 0.00 0.00 70 1013.4
20260503224516 10 0 12.9 30.6 0.00 0.00 0.00 70 1013.5
20260503224242 10 0 19.3 35.4 0.00 0.00 0.00 71 1013.9
20260503223736 10 0 20.9 45.1 0.00 0.00 0.00 70 1014.2
20260503222958 10 0 22.5 45.1 0.00 0.00 0.00 70 1014.0
20260503222453 10 0 27.4 45.1 0.00 0.00 0.00 70 1014.2
20260503221947 10 0 24.1 48.3 0.00 0.00 0.00 70 1014.3
20260503221440 10 0 27.4 46.7 0.00 0.00 0.00 70 1014.4
20260503220934 11 0 30.6 48.3 0.00 0.00 0.00 69 1014.5
20260503220429 11 246 27.4 48.3 0.00 0.00 0.00 67 1014.6
20260503215922 11 260 25.7 41.8 0.00 0.00 0.00 66 1014.4
20260503215422 11 240 25.7 41.8 0.00 0.00 0.00 66 1014.5
20260503215153 12 0 29.0 48.3 0.00 0.00 0.00 65 1014.3
20260503214654 12 254 32.2 53.1 0.00 0.00 0.00 65 1014.4
20260503213922 12 281 29.0 53.1 0.00 0.00 0.00 63 1014.4
20260503213652 12 0 29.0 53.1 0.00 0.00 0.00 62 1014.3
20260503213152 13 285 27.4 53.1 0.00 0.00 0.00 58 1014.2
20260503212421 14 229 25.7 45.1 0.00 0.00 0.00 45 1013.7
20260503211922 15 217 27.4 45.1 0.00 0.00 0.00 45 1013.7
20260503211422 15 225 25.7 45.1 0.00 0.00 0.00 44 1013.7
20260503210922 15 245 25.7 43.5 0.00 0.00 0.00 45 1013.7
20260503210422 15 243 25.7 43.5 0.00 0.00 0.00 45 1013.9
20260503205926 15 253 24.1 41.8 0.00 0.00 0.00 43 1013.8
20260503205922 15 250 25.7 40.2 0.00 0.00 0.00 44 1013.9
20260503204922 15 215 24.1 41.8 0.00 0.00 0.00 42 1013.9
20260503204422 15 243 25.7 41.8 0.00 0.00 0.00 43 1013.9
20260503203922 15 247 29.0 41.8 0.00 0.00 0.00 43 1014.0
20260503203422 15 233 27.4 41.8 0.00 0.00 0.00 41 1014.2
20260503202922 15 209 27.4 41.8 0.00 0.00 0.00 43 1014.2
20260503202422 15 234 29.0 41.8 0.00 0.00 0.00 42 1014.2
20260503201922 15 216 27.4 41.8 0.00 0.00 0.00 42 1014.3
20260503201422 15 205 25.7 41.8 0.00 0.00 0.00 42 1014.3
20260503200922 15 219 27.4 41.8 0.00 0.00 0.00 43 1014.5
20260503200421 15 238 30.6 41.8 0.00 0.00 0.00 43 1014.5
20260503195921 15 227 30.6 41.8 0.00 0.00 0.00 43 1014.6
20260503195421 15 225 29.0 48.3 0.00 0.00 0.00 41 1014.6
20260503194921 15 248 24.1 48.3 0.00 0.00 0.00 41 1014.7
20260503194422 15 220 24.1 41.8 0.00 0.00 0.00 43 1014.7
20260503193922 15 229 29.0 46.7 0.00 0.00 0.00 40 1014.7
20260503193422 15 214 24.1 46.7 0.00 0.00 0.00 41 1014.9
20260503192918 16 212 22.5 37.0 0.00 0.00 0.00 42 1014.8
20260503192418 15 201 25.7 46.7 0.00 0.00 0.00 41 1014.8
20260503191918 15 249 27.4 46.7 0.00 0.00 0.00 42 1014.8
20260503191418 15 251 27.4 46.7 0.00 0.00 0.00 42 1015.0
20260503191148 15 203 29.0 46.7 0.00 0.00 0.00 41 1015.0
20260503190418 15 250 27.4 48.3 0.00 0.00 0.00 41 1015.0
20260503185918 15 244 27.4 48.3 0.00 0.00 0.00 41 1015.2
20260503185417 15 219 29.0 51.5 0.00 0.00 0.00 42 1015.2
20260503185148 15 233 27.4 51.5 0.00 0.00 0.00 41 1015.4
20260503184413 15 233 22.5 43.5 0.00 0.00 0.00 44 1015.3
20260503183914 15 219 25.7 45.1 0.00 0.00 0.00 43 1015.3
20260503183414 15 238 29.0 45.1 0.00 0.00 0.00 41 1015.6
20260503183144 15 242 27.4 45.1 0.00 0.00 0.00 42 1015.5
20260503182413 15 229 27.4 45.1 0.00 0.00 0.00 41 1015.7
20260503181913 15 262 27.4 45.1 0.00 0.00 0.00 42 1015.7
20260503181413 15 227 27.4 46.7 0.00 0.00 0.00 41 1015.8
20260503180913 15 217 25.7 46.7 0.00 0.00 0.00 44 1015.9
20260503180413 15 244 24.1 46.7 0.00 0.00 0.00 42 1015.9
20260503175908 15 231 27.4 46.7 0.00 0.00 0.00 42 1016.0
20260503175411 15 238 27.4 46.7 0.00 0.00 0.00 44 1016.1
20260503175407 15 219 30.6 46.7 0.00 0.00 0.00 41 1016.1
20260503174407 15 252 25.7 46.7 0.00 0.00 0.00 42 1016.2
20260503173908 15 223 25.7 43.5 0.00 0.00 0.00 43 1016.2
20260503173407 15 225 25.7 43.5 0.00 0.00 0.00 47 1016.2
20260503172908 15 237 25.7 41.8 0.00 0.00 0.00 45 1016.4
20260503172406 15 198 24.1 41.8 0.00 0.00 0.00 44 1016.4
20260503171906 15 229 24.1 41.8 0.00 0.00 0.00 44 1016.4
20260503171403 15 246 25.7 41.8 0.00 0.00 0.00 45 1016.4
20260503170903 14 217 24.1 41.8 0.00 0.00 0.00 43 1016.5
20260503170403 15 240 24.1 41.8 0.00 0.00 0.00 44 1016.6